Location: ??
(36.7391°N, 127.5151°E)
Time: 11:20:10
(UTC+00:00)

MOS 1 Rocket - Pass Details

Date: 07 June 2020
Orbit: 614 x 830 km, 97.4° (Epoch: 14 July)

Event Time Altitude Azimuth Distance (km) Brightness Sun altitude
Rises 11:45:37 0° 4° (N) 2,901 7.0 -10.5°
Reaches altitude 10° 11:47:52 10° 358° (N) 1,983 6.3 -10.9°
Maximum altitude 11:51:57 44° 286° (WNW) 854 4.3 -11.5°
Drops below altitude 10° 11:56:01 10° 214° (SW) 1,984 5.6 -12.1°
Sets 11:58:17 0° 208° (SSW) 2,902 6.4 -12.5°
